This demonstration page uses our WeatherBlox Daily Observations layout. Learn more.

Left ArrowRight Arrow

36.17497, -115.13722

Hourly Observations for March 25, 2015

Temp ( °F °C ) Dew Point ( °F °C ) Humidity (%) Winds ( mph kmh ) Pressure ( in mb ) Visibility ( mi km ) Precip ( " mm )
12:53 am 00:53 Clear 67 19.4 22 -5.6 18 18 N 13 20 30.01 1016 10 16 N/A
1:53 am 01:53 Clear 67 19.4 22 -5.6 18 18 NNW 16 26 30.03 1017 10 16 N/A
2:53 am 02:53 Clear 67 19.4 22 -5.6 18 18 NNW 21 33 30.04 1017 10 16 N/A
3:53 am 03:53 Clear 64 17.8 23 -5 21 21 NNW 13 20 30.06 1018 10 16 N/A
4:53 am 04:53 Clear 64 17.8 24 -4.4 22 22 NNW 20 31 30.08 1019 10 16 N/A
7:53 am 07:53 Sunny 63 17.2 25 -3.9 24 24 N 14 22 30.16 1021 10 16 N/A
8:53 am 08:53 Sunny 65 18.3 25 -3.9 22 22 N 20 31 30.20 1023 10 16 N/A
9:53 am 09:53 Sunny 67 19.4 25 -3.9 20 20 NNE 13 20 30.22 1023 10 16 N/A
10:53 am 10:53 Sunny 69 20.6 25 -3.9 19 19 NNW 17 28 30.23 1024 10 16 N/A
11:53 am 11:53 Sunny 71 21.7 24 -4.4 17 17 N 10 17 30.22 1024 10 16 N/A
12:53 pm 12:53 Sunny 72 22.2 23 -5 16 16 undefined N/A 30.21 1023 10 16 N/A
1:53 pm 13:53 Sunny 72 22.2 23 -5 16 16 VRB 3 6 30.19 1022 10 16 N/A
2:53 pm 14:53 Sunny 73 22.8 22 -5.6 15 15 W 6 9 30.17 1022 10 16 N/A
3:53 pm 15:53 Sunny 75 23.9 22 -5.6 14 14 VRB 3 6 30.15 1021 10 16 N/A
4:53 pm 16:53 Sunny 76 24.4 20 -6.7 12 12 E 6 9 30.13 1020 10 16 N/A
5:53 pm 17:53 Sunny 76 24.4 22 -5.6 13 13 SE 5 7 30.12 1020 10 16 N/A
6:53 pm 18:53 Sunny 73 22.8 24 -4.4 16 16 E 12 19 30.13 1020 10 16 N/A
7:53 pm 19:53 Clear 71 21.7 23 -5 16 16 E 15 24 30.16 1021 10 16 N/A
8:53 pm 20:53 Clear 69 20.6 20 -6.7 15 15 ENE 15 24 30.18 1022 10 16 N/A
9:53 pm 21:53 Clear 68 20 19 -7.2 15 15 ENE 8 13 30.19 1023 10 16 N/A
10:53 pm 22:53 Clear 67 19.4 19 -7.2 16 16 SE 3 6 30.21 1023 10 16 N/A
11:53 pm 23:53 Clear 65 18.3 18 -7.8 16 16 ESE 3 6 30.22 1023 10 16 N/A

Powered by AerisWeather